Погода в Подлесном

Россия / Тамбовская область     53°09′31″N   41°14′21″E
темп.,
°C
ветер,
м/с
пор.,
м/с
влажн.,
%
обл.,
%
осадки,
мм/ч
давл.,
гПа
погр.,
м
18 мая, вт
вт1800:00+17вюв415695 0.0 1011252
03:00+16вюв51460100 0.0 1011263
06:00+15вюв411695 0.0 1010192
09:00+22вюв510545 0.0 1010419
12:00+26вюв6104346 0.0 10101089
15:00+27вюв813485 0.0 10081262
18:00+24вюв714550 0.0 1007485
21:00+22вюв717505 0.0 1007538
19 мая, ср
ср1900:00+17юв49680 0.0 1008182
03:00+16ююв5118177 0.0 1009305
06:00+16ююв3792100 0.0 1009267
09:00+20ю457115 0.0 1010760
12:00+24вюв485480 0.0 10081468
15:00+25ююв6115287 0.0 10082367
18:00+23ю486688 0.1 1007305
21:00+18ю2278100 0.1 100713
20 мая, чт
чт2000:00+15ю51192100 2.3 1009428
03:00+13ююв379486 4.3 1008397
06:00+13юв5109372 0.0 1009515
09:00+16ююв797765 0.1 10091069
12:00+17ю796774 0.1 10101357
15:00+17ю687051 0.3 10101307
18:00+18ю57730 0.1 1010899
21:00+14ююз35895 0.3 101168
21 мая, пт
пт2100:00+12юз35942 0.0 101182
03:00+11ююз369589 0.0 1011120
06:00+13юз3892100 0.1 1012388
09:00+15зюз578098 0.1 1013854
12:00+16зюз6764100 0.3 10141438
15:00+16з4669100 0.3 1015974
18:00+16зсз367394 0.0 1016492
21:00+12сз3389100 0.0 101843
22 мая, сб
сб2200:00+11ссз2284100 0.0 101816
03:00+11св1182100 0.0 101910
06:00+12вюв3485100 0.2 1019131
09:00+11в3596100 2.6 1020214
12:00+15св5781100 0.1 1019453
15:00+15св71086100 0.3 1018471
18:00+13св81491100 0.1 1017443
21:00+13всв71392100 0.1 1017361